Weather Service Report


651 
ASUS46 KSEW 220910
RWRWA 

WASHINGTON REGIONAL WEATHER ROUNDUP
NATIONAL WEATHER SERVICE SEATTLE WA
100 AM PST MON DEC 22 2014

NOTE:"FAIR" INDICATES FEW OR NO CLOUDS BELOW 12,000 FEET WITH NO 
SIGNIFICANT WEATHER AND/OR OBSTRUCTIONS TO VISIBILITY.

WAZ505-507>509-221000-
SEATTLE, TACOMA, EVERETT, AND VICINITY
  
CITY           SKY/WX    TMP DP  RH WIND       PRES   REMARKS
EVERETT        MOCLDY    44  42  93 CALM      30.14R                  
BOEING FIELD   MOCLDY    52  44  74 SW3       30.14R                  
RENTON         CLOUDY    52  46  80 CALM      30.13R                  
SEATAC AIRPORT MOCLDY    50  44  80 SW7       30.13R                  
JBLM-MCCHORD   CLOUDY    48  48  99 SW10      30.14R                  
PUYALLUP       NOT AVBL                                               
JBLM-FT LEWIS  CLOUDY    49  48  99 S3        30.15R                  
TACOMA NARROWS MOCLDY    49  44  83 S8        30.13R                  
$$
 
WAZ001-503-506-510-514-515-221000-
NORTH INTERIOR
  
CITY           SKY/WX    TMP DP  RH WIND       PRES   REMARKS
BELLINGHAM     CLOUDY    49  43  80 S3        30.10R                  
FRIDAY HARBOR  PTCLDY    46  40  79 SW3       30.13R                  
EASTSOUND      CLEAR     46  41  81 CALM      30.10R                  
PORT ANGELES   LGT RAIN  47  40  76 VRB7      30.15R                  
NAS WHIDBEY    PTCLDY    52  45  77 W20       30.13R                  
BURLINGTON     PTCLDY    46  45  93 CALM      30.13R                  
$$
 
WAZ020-022-039-040-504-511-512-221000-
SOUTHWEST INTERIOR
  
CITY           SKY/WX    TMP DP  RH WIND       PRES   REMARKS
SHELTON        PTCLDY    46  43  89 SW10      30.12R                  
OLYMPIA        MOCLDY    49  44  83 SW8       30.16S                  
CHEHALIS       CLOUDY    48  48 100 S3        30.18R                  
KELSO          CLOUDY    50  46  87 SE3       30.23R                  
VANCOUVER      CLOUDY    50  49  96 CALM      30.20R FOG              
SCAPPOOSE, OR  CLOUDY    49  48  97 CALM      30.19R                  
PORTLAND, OR   LGT RAIN  50  50 100 CALM      30.20R FOG              
$$
 
WAZ021-516-517-221000-
WASHINGTON COAST
  
CITY           SKY/WX    TMP DP  RH WIND       PRES   REMARKS
FORKS          MOCLDY    48  43  82 NW5       30.17R                  
HOQUIAM        MOCLDY    52  49  89 W10       30.17R FOG              
ASTORIA, OR    CLOUDY    50  48  93 CALM      30.19S                  
$$
 
WAZ019-023-024-040-518-519-221000-
CASCADE MOUNTAINS AND COLUMBIA GORGE
  
CITY           SKY/WX    TMP DP  RH WIND       PRES   REMARKS
TROUTDALE, OR  LGT RAIN  51  49  92 SW6       30.19R FOG              
THE DALLES, OR CLOUDY    50  45  83 NW3       30.13R                  
$$

WAZ026-027-041>044-520-521-221000-
EAST SLOPES
  
CITY           SKY/WX    TMP DP  RH WIND       PRES   REMARKS
OMAK           CLEAR     33  28  81 S7        29.98S                  
WENATCHEE      MOCLDY    41  34  76 W3        30.02S                  
ELLENSBURG     CLOUDY    43  37  79 NW9       30.06R                  
YAKIMA         NOT AVBL                                               
$$

WAZ028-034-035-221000-
COLUMBIA BASIN
  
CITY           SKY/WX    TMP DP  RH WIND       PRES   REMARKS
EPHRATA        PTCLDY    38  33  82 SW12      30.01R                  
MOSES LAKE     MOCLDY    41  34  76 SW13      30.02F                  
PASCO          CLOUDY    47  42  83 NW3       30.09R                  
HERMISTON, OR  CLOUDY    50  41  71 SW14      30.08S                  
$$

WAZ036>038-221000-
NORTHEAST WASHINGTON
  
CITY           SKY/WX    TMP DP  RH WIND       PRES   REMARKS
SPOKANE GEIGER MOCLDY    37  32  82 SW13      29.96S                  
SPOKANE FELTS  MOCLDY    39  32  76 VRB3      29.98R                  
FAIRCHILD AFB  PTCLDY    36  32  84 SW7       29.97R                  
COEURDALENE,ID MOCLDY    37  32  81 SW5       29.96R                  
DEER PARK      PTCLDY    35  32  88 SE7       29.96R                  
$$

WAZ029>033-221000-
SOUTHEAST WASHINGTON
  
CITY           SKY/WX    TMP DP  RH WIND       PRES   REMARKS
PULLMAN        CLOUDY    42  36  79 W15       30.03R                  
LEWISTON, ID   CLOUDY    49  35  58 NW9       30.05R                  
WALLA WALLA    CLOUDY    47  41  80 S8        30.08S                  
PENDLETON, OR  CLOUDY    47  39  74 W17       30.07S                  
$$

Return to Home page


Western Regional Climate Center, wrcc@dri.edu